Overview Statistics Trail Chart Weather Telemetry Raw packets
 

This is the latest recevied weather packets stored in our database for station/object KH6DH-13. If no packets are shown the sender has not sent any weather packets the latest 10 day(s).

<< 40 41 42 43 44 45 46 >>
Time Temp. Humidity Pressure Rain* Wind** Luminosity Snow
1788060594 29.44° C - - 0 mm 1.79 m/s, 76° - -
1788059988 29.44° C - - 0 mm 1.34 m/s, 148° - -
1788059387 29.44° C - - 0 mm 1.34 m/s, 72° - -
1788058786 30° C - - 0 mm 1.79 m/s, 10° - -
1788058185 30.56° C - - 0 mm 2.24 m/s, 93° - -
1788057584 30.56° C - - 0 mm 2.24 m/s, 156° - -
1788056992 30° C - - 0 mm 2.24 m/s, 52° - -
1788056382 30.56° C - - 0 mm 1.34 m/s, 211° - -
1788055781 30° C - - 0 mm 2.24 m/s, 32° - -
1788055180 30° C - - 0 mm 1.79 m/s, 49° - -
1788054579 30.56° C - - 0 mm 1.79 m/s, 329° - -
1788053978 30° C - - 0 mm 1.79 m/s, 128° - -
1788053377 30° C - - 0 mm 1.34 m/s, 23° - -
1788052776 30° C - - 0 mm 1.79 m/s, 187° - -
1788052175 30° C - - 0 mm 3.13 m/s, 190° - -
1788051574 29.44° C - - 0 mm 0.89 m/s, 153° - -
1788050973 29.44° C - - 0 mm 0.89 m/s, 97° - -
1788050372 30° C - - 0 mm 1.79 m/s, 59° - -
1788049771 30° C - - 0 mm 1.79 m/s, 135° - -
1788049170 30° C - - 0 mm 3.13 m/s, 66° - -
1788048569 30° C - - 0 mm 2.24 m/s, 32° - -
1788047968 30° C - - 0 mm 2.68 m/s, 72° - -
1788047367 29.44° C - - 0 mm 2.24 m/s, 14° - -
1788046772 30° C - - 0 mm 4.02 m/s, 103° - -
1788046165 29.44° C - - 0 mm 0.45 m/s, 89° - -

* Rain latest hour (hover to see other rain measurements)
** Current wind speed in m/s (hover to see current wind gust speed)